Daytona Beach Weather Center

Moon Phase Calendar



Online Cameras

 


      

Current Conditions in Daytona Beach Shores
5/26/2022 1:23:39 PM

85°F
Feels Like 91
Clouds
Humidity
64%
Pressure
30.09"
Wind
20 mph (SE)
Dew Point
72°F
UV Index
10/10 (Very High)
Visibility
6 mi

Hourly Forecast

Date & Time Thu, May 26
1:00 PM
Thu, May 26
2:00 PM
Thu, May 26
3:00 PM
Thu, May 26
4:00 PM
Thu, May 26
5:00 PM
Thu, May 26
6:00 PM
Thu, May 26
7:00 PM
Thu, May 26
8:00 PM
Thu, May 26
9:00 PM
Thu, May 26
10:00 PM
Thu, May 26
11:00 PM
Fri, May 27
12:00 AM
Fri, May 27
1:00 AM
Fri, May 27
2:00 AM
Fri, May 27
3:00 AM
Fri, May 27
4:00 AM
Fri, May 27
5:00 AM
Fri, May 27
6:00 AM
Fri, May 27
7:00 AM
Fri, May 27
8:00 AM
Fri, May 27
9:00 AM
Fri, May 27
10:00 AM
Fri, May 27
11:00 AM
Fri, May 27
12:00 PM
Fri, May 27
1:00 PM
Fri, May 27
2:00 PM
Fri, May 27
3:00 PM
Fri, May 27
4:00 PM
Fri, May 27
5:00 PM
Fri, May 27
6:00 PM
Fri, May 27
7:00 PM
Fri, May 27
8:00 PM
Fri, May 27
9:00 PM
Fri, May 27
10:00 PM
Fri, May 27
11:00 PM
Sat, May 28
12:00 AM
Sat, May 28
1:00 AM
Sat, May 28
2:00 AM
Sat, May 28
3:00 AM
Sat, May 28
4:00 AM
Sat, May 28
5:00 AM
Sat, May 28
6:00 AM
Sat, May 28
7:00 AM
Sat, May 28
8:00 AM
Sat, May 28
9:00 AM
Sat, May 28
10:00 AM
Sat, May 28
11:00 AM
Sat, May 28
12:00 PM
Condition
Clouds

Clouds

Clouds

Clouds

Clouds

Clouds

Clouds

Clouds

Clouds

Clouds

Clouds

Rain

Rain

Rain

Clouds

Clouds

Clouds

Clouds

Clouds

Clouds

Clouds

Clouds

Rain

Rain

Rain

Rain

Rain

Rain

Clouds

Clouds

Rain

Rain

Rain

Rain

Rain

Clouds

Clouds

Clouds

Clear

Clear

Clear

Clear

Clear

Clear

Clear

Clear

Clear

Clear
Temperature 85°F85°F84°F84°F83°F81°F80°F79°F78°F78°F78°F77°F77°F76°F76°F76°F76°F75°F75°F77°F79°F82°F84°F86°F86°F86°F84°F82°F81°F83°F83°F82°F81°F80°F78°F77°F76°F75°F74°F74°F74°F73°F73°F75°F79°F82°F84°F86°F
Feels Like 91°F90°F89°F88°F87°F85°F80°F80°F79°F79°F79°F78°F78°F77°F77°F77°F77°F77°F77°F78°F79°F86°F88°F90°F90°F90°F88°F86°F85°F87°F87°F86°F84°F80°F79°F78°F77°F76°F75°F75°F75°F74°F74°F76°F79°F83°F85°F86°F
Cloudiness 40%52%50%44%52%58%67%72%99%99%100%100%100%100%100%100%100%100%100%99%100%67%51%45%47%56%100%100%100%99%83%84%86%78%52%39%31%26%0%0%0%0%0%0%0%0%0%0%
Visibility 6 mi6 mi6 mi6 mi6 mi6 mi6 mi6 mi6 mi6 mi6 mi6 mi6 mi6 mi6 mi6 mi6 mi6 mi6 mi6 mi6 mi6 mi6 mi6 mi6 mi6 mi6 mi6 mi6 mi6 mi6 mi6 mi6 mi6 mi6 mi6 mi6 mi6 mi6 mi6 mi6 mi6 mi6 mi6 mi6 mi6 mi6 mi6 mi
Precipitation 0%0%0%0%0%0%0%0%0%0%0%20%37%39%50%42%39%39%39%39%21%25%64%68%67%59%41%49%49%49%51%59%71%77%77%74%74%74%8%8%4%0%0%0%0%1%1%1%
Humidity 64%63%62%62%65%69%72%76%78%80%82%83%84%84%84%82%82%82%83%80%73%66%61%58%57%58%62%67%70%66%66%67%68%69%71%73%76%80%83%84%85%86%86%77%64%55%50%45%
Dew Point 72°F71°F70°F69°F70°F70°F70°F70°F71°F71°F72°F71°F71°F71°F71°F70°F69°F69°F70°F70°F70°F69°F69°F68°F68°F68°F68°F70°F70°F70°F70°F70°F70°F69°F68°F67°F68°F68°F69°F69°F69°F69°F69°F68°F66°F64°F64°F62°F
Pressure 30.09"30.09"30.09"30.06"30.03"30.03"30.03"30.03"30.03"30.03"30.03"30.03"30.03"30"30"30"30"30"30"30.03"30.03"30"30"30"29.97"29.94"29.94"29.91"29.91"29.88"29.91"29.88"29.91"29.94"29.94"29.94"29.94"29.91"29.91"29.91"29.91"29.91"29.94"29.94"29.97"29.97"29.94"29.94"
Wind Speed 17.2 mph17.6 mph17.9 mph18.2 mph19 mph19.5 mph18.9 mph17.9 mph16.4 mph16 mph15.5 mph14.3 mph12.3 mph10.7 mph10.3 mph10.9 mph11.4 mph11.1 mph10.6 mph10.9 mph11 mph9.8 mph8.8 mph8.2 mph6.9 mph3.9 mph6.9 mph13.1 mph15.5 mph14.9 mph12 mph9.1 mph8.3 mph8.2 mph6.7 mph6.6 mph7 mph7.7 mph7.5 mph7.2 mph7.2 mph7 mph6.4 mph6.5 mph6.2 mph4.4 mph2.2 mph0.8 mph
Wind
Direction
125°
SE
127°
SE
124°
SE
124°
SE
126°
SE
128°
SE
130°
SE
134°
SE
139°
SE
143°
SE
146°
SE
159°
SSE
167°
SSE
180°
S
182°
S
182°
S
181°
S
184°
S
186°
S
190°
S
197°
SSW
199°
SSW
189°
S
170°
S
164°
SSE
154°
SSE
109°
ESE
119°
ESE
128°
SE
144°
SE
155°
SSE
176°
S
197°
SSW
218°
SW
229°
SW
225°
SW
232°
SW
245°
WSW
246°
WSW
247°
WSW
250°
WSW
253°
WSW
254°
WSW
260°
W
259°
W
260°
W
249°
WSW
121°
ESE

Daily Forecast

Date High Low Precip. Humidity
Today
May 26

Clouds
85 °F
76 °F
0%
64%
Friday
May 27

Rain
86 °F
75 °F
77%
57%
Saturday
May 28

Rain
86 °F
74 °F
74%
49%
Sunday
May 29

Rain
84 °F
74 °F
67%
58%
Monday
May 30

Rain
84 °F
76 °F
54%
61%
Tuesday
May 31

Rain
83 °F
76 °F
43%
62%
Wednesday
Jun 1

Rain
81 °F
75 °F
90%
60%
Thursday
Jun 2

Rain
85 °F
70 °F
28%
43%
Friday
Jun 3

Rain
85 °F
73 °F
53%
51%
Saturday
Jun 4

Rain
86 °F
74 °F
92%
60%
Sunday
Jun 5

Rain
83 °F
77 °F
84%
68%
Monday
Jun 6

Clear
84 °F
77 °F
23%
61%
Tuesday
Jun 7

Rain
92 °F
75 °F
92%
49%
Wednesday
Jun 8

Rain
91 °F
75 °F
85%
51%
Thursday
Jun 9

Rain
92 °F
74 °F
97%
48%
Friday
Jun 10

Rain
92 °F
73 °F
44%
49%

Temperature 8-14 Day Outlook



Precipitation 8-14 Day Outlook




Quick Links
Daytona Beach News
Daytona Beach Photos
Daytona Beach Videos




About Us
Contact Us
Site Map
Search Site
Advertise With Us
   
Daytona.USCoast.info
THE DAYTONA BEACH WEBSITE

Copyright 2022, Coastal Town
Privacy    |    Legal